Date,TemperatureHighF,TemperatureAvgF,TemperatureLowF,DewpointHighF,DewpointAvgF,DewpointLowF,HumidityHigh,HumidityAvg,HumidityLow,PressureMaxIn,PressureMinIn,WindSpeedMaxMPH,WindSpeedAvgMPH,GustSpeedMaxMPH,PrecipitationSumIn
2013-1-1,23,10,3,7,-2,-8,70,59,41,30.07,29.92,4,0,5,0.00
2013-1-3,25,9,-2,4,-8,-14,64,47,27,30.15,30.09,2,0,4,0.00
2013-1-4,34,17,7,0,-10,-19,43,30,21,30.12,30.06,2,0,2,0.02
2013-1-5,43,24,13,8,-4,-11,39,29,22,30.22,30.09,2,0,3,0.00
2013-1-6,49,30,22,14,-2,-8,32,25,21,30.19,30.03,4,1,6,0.00
2013-1-7,42,28,22,7,-3,-8,34,26,21,30.03,29.98,2,0,4,0.00
2013-1-8,39,26,18,11,-1,-10,57,33,22,30.23,29.98,4,1,5,0.00
2013-1-9,41,24,17,12,6,4,58,47,30,30.25,30.21,2,0,4,0.00
2013-1-10,46,33,27,17,4,-8,58,31,21,30.06,29.64,13,2,17,0.00
2013-1-11,30,12,-1,14,-4,-21,78,50,24,29.77,29.50,17,6,24,0.01
2013-1-12,10,0,-4,-7,-16,-21,58,47,26,29.78,29.71,4,1,7,0.00
2013-1-13,12,2,-5,-4,-13,-43,61,48,10,29.81,29.73,5,1,7,0.00
2013-1-14,12,-2,-8,-4,-15,-21,57,53,42,29.93,29.80,2,0,4,0.00
2013-1-15,19,3,-11,3,-12,-24,61,49,31,30.17,29.92,5,0,7,0.00
2013-1-16,38,18,4,16,4,-7,68,54,32,30.27,30.15,4,0,4,0.00
2013-1-17,44,30,15,17,8,3,60,43,27,30.32,30.26,97,5,97,0.01
2013-1-18,45,39,22,14,11,6,54,32,26,30.28,30.21,2,0,4,0.01
2013-1-19,45,45,45,13,13,13,27,27,27,30.30,30.21,1,1,2,0.00
2013-1-20,45,38,24,13,4,-9,27,24,21,30.25,30.18,3,1,98,0.00
2013-1-21,48,45,34,14,10,2,27,24,21,30.25,30.19,3,1,4,0.00
2013-1-22,52,48,30,14,12,-2,25,23,21,30.29,30.22,3,1,97,0.00
2013-1-23,52,52,52,14,14,14,22,22,22,30.31,30.25,1,1,2,0.00
2013-1-24,52,39,30,26,16,-1,78,43,21,30.26,30.21,8,1,14,0.00
2013-1-25,40,34,29,32,26,-13,90,75,10,30.24,30.16,4,1,4,0.00
2013-1-26,38,33,30,34,29,26,93,86,77,30.16,29.86,2,0,2,0.12
2013-1-27,46,36,30,36,24,11,95,68,33,29.94,29.85,11,2,16,0.28
2013-1-28,35,29,14,19,12,-1,78,51,34,29.86,29.74,13,4,17,0.28
2013-1-29,23,12,6,11,2,-6,76,65,41,29.91,29.70,2,0,4,0.00
2013-1-30,24,16,5,12,3,-7,65,56,43,30.08,29.91,8,0,12,0.00
2013-1-31,42,27,18,19,12,6,68,53,31,30.20,30.07,9,2,14,0.00